User: anonymous   Login
Location: Caltech
(34.1382°N, 118.1253°W)
Time: 15:25:50
(UTC-08:00)
Language:

CZ-4B DEB - Orbit

View from above orbital plane
View from above orbital plane
View from above satellite
View from above satellite

Ground track
Ground track

The orbit data is extracted from the following two-line orbital elements,

1 27433U 02024D   17345.89079949 +.00000063 +00000-0 +58674-4 0  9995
2 27433 098.9899 319.2634 0013820 270.8007 089.1580 14.12225558802263
Epoch (UTC): 11 December 2017 21:22:45
Eccentricity: 0.0013820
inclination: 98.9899°
perigee height: 842 km
apogee height: 862 km
right ascension of ascending node: 319.2634°
argument of perigee: 270.8007°
revolutions per day: 14.12225558
mean anomaly at epoch: 89.1580°
orbit number at epoch: 80226

The dashed part of the orbit path shows where the satellite is in the earth's shadow,  

DLR